Weather History for Luverne, MN

Change the Weather History Date:

Wednesday, January 23, 2013

  Actual Average (KFSD) Record (KFSD)
Temperature  
Mean Temperature 8 °F 17 °F  
Max Temperature 19 °F 27 °F 57 °F (1981)
Min Temperature -4 °F 7 °F -23 °F (1948)
Degree Days  
Heating Degree Days 58 48  
Month to date heating degree days 1122  
Since 1 July heating degree days 4255  
Cooling Degree Days 0 0  
Month to date cooling degree days 0  
Year to date cooling degree days 0  
Moisture  
Dew Point 2 °F    
Average Humidity 71    
Maximum Humidity 86    
Minimum Humidity 53    
Precipitation  
Precipitation 0.00 in 0.02 in 0.32 in (2010)
Month to date precipitation 0.42  
Year to date precipitation 0.42  
Snow  
Snow 0.00 in 0.20 in 4.60 in (1969)
Month to date snowfall 5.6  
Since 1 July snowfall 22.5  
Snow Depth -    
Sea Level Pressure  
Sea Level Pressure 30.29 in    
Wind  
Wind Speed 10 mph (NNW)    
Max Wind Speed 22 mph    
Max Gust Speed 25 mph    
Visibility 10 miles    
Events      
T = Trace of Precipitation, MM = Missing Value Source: NWS Daily Summary

Daily Weather History Graph

Daily Weather History Graph

Search for Another Location

Airport:

Trip Planner

Search our weather history database for the weather conditions in past years. The results will help you decide how hot, cold, wet, or windy it might be!

Date:

Astronomy

Jan. 23, 2013 Rise Set
Actual Time 7:49 AM CST 5:24 PM CST
Civil Twilight 7:18 AM CST 5:55 PM CST
Nautical Twilight 6:43 AM CST 6:30 PM CST
Astronomical Twilight 6:09 AM CST 7:04 PM CST
Moon 2:34 PM CST (1/23) 5:03 AM CST (1/23)
Length of Visible Light 10h 37m
Length of Day
9h 34m
Waxing Gibbous, 89% of the Moon is Illuminated
Jan 23
Waxing Gibbous
Jan 26
Full
Feb 3
Last Quarter
Feb 10
New
Feb 17
First Quarter

Hourly Weather History & Observations

Time (CST) Temp. Windchill Dew Point Humidity Pressure Visibility Wind Dir Wind Speed Gust Speed Precip Events Conditions
12:16 AM 15.8 °F 0.3 °F 10.4 °F 79% 30.14 in 10.0 mi SSW 16.1 mph - N/A   Overcast
12:36 AM 15.8 °F 2.7 °F 10.4 °F 79% 30.14 in 10.0 mi SSW 11.5 mph - N/A   Overcast
12:56 AM 15.8 °F 3.4 °F 10.4 °F 79% 30.14 in 10.0 mi SSW 10.4 mph - N/A   Overcast
1:16 AM 15.8 °F 3.4 °F 10.4 °F 79% 30.12 in 10.0 mi SSW 10.4 mph - N/A   Overcast
1:36 AM 15.8 °F 3.4 °F 10.4 °F 79% 30.12 in 10.0 mi SSW 10.4 mph - N/A   Overcast
1:56 AM 14.0 °F 2.9 °F 8.6 °F 79% 30.12 in 10.0 mi SSW 8.1 mph - N/A   Scattered Clouds
2:15 AM 12.2 °F 6.1 °F 8.6 °F 85% 30.13 in 10.0 mi SW 3.5 mph - N/A   Clear
2:36 AM 12.2 °F - 8.6 °F 85% 30.13 in 10.0 mi Calm Calm - N/A   Clear
2:56 AM 10.4 °F - 6.8 °F 85% 30.13 in 10.0 mi Calm Calm - N/A   Clear
3:15 AM 10.4 °F - 5.0 °F 79% 30.13 in 10.0 mi Calm Calm - N/A   Clear
3:36 AM 8.6 °F - 5.0 °F 85% 30.12 in 10.0 mi Calm Calm - N/A   Clear
3:56 AM 8.6 °F - 3.2 °F 79% 30.11 in 10.0 mi Calm Calm - N/A   Clear
4:15 AM 8.6 °F - 5.0 °F 85% 30.13 in 10.0 mi Calm Calm - N/A   Clear
4:36 AM 8.6 °F - 5.0 °F 85% 30.12 in 10.0 mi Calm Calm - N/A   Clear
4:55 AM 8.6 °F - 5.0 °F 85% 30.12 in 10.0 mi Calm Calm - N/A   Clear
5:16 AM 10.4 °F 2.2 °F 5.0 °F 79% 30.12 in 10.0 mi NW 4.6 mph - N/A   Clear
5:36 AM 8.6 °F 2.0 °F 5.0 °F 85% 30.13 in 10.0 mi NW 3.5 mph - N/A   Clear
5:55 AM 8.6 °F 2.0 °F 5.0 °F 85% 30.12 in 10.0 mi WNW 3.5 mph - N/A   Clear
6:16 AM 10.4 °F -1.5 °F 6.8 °F 85% 30.13 in 10.0 mi West 8.1 mph - N/A   Clear
6:36 AM 10.4 °F 2.2 °F 6.8 °F 85% 30.14 in 10.0 mi WNW 4.6 mph - N/A   Clear
6:55 AM 12.2 °F 1.7 °F 8.6 °F 85% 30.15 in 10.0 mi WNW 6.9 mph - N/A   Clear
7:16 AM 10.4 °F -1.5 °F 6.8 °F 85% 30.16 in 10.0 mi WNW 8.1 mph - N/A   Clear
7:36 AM 12.2 °F 1.7 °F 8.6 °F 85% 30.16 in 10.0 mi WNW 6.9 mph - N/A   Clear
7:55 AM 12.2 °F 4.3 °F 8.6 °F 85% 30.17 in 10.0 mi NW 4.6 mph - N/A   Clear
8:16 AM 12.2 °F 4.3 °F 8.6 °F 85% 30.17 in 10.0 mi NW 4.6 mph - N/A   Scattered Clouds
8:36 AM 10.4 °F 2.2 °F 6.8 °F 85% 30.18 in 10.0 mi WNW 4.6 mph - N/A   Scattered Clouds
8:55 AM 12.2 °F 0.7 °F 8.6 °F 85% 30.19 in 10.0 mi WNW 8.1 mph - N/A   Clear
9:16 AM 14.0 °F 3.9 °F 8.6 °F 79% 30.20 in 10.0 mi NW 6.9 mph - N/A   Clear
9:36 AM 14.0 °F 1.2 °F 10.4 °F 86% 30.21 in 10.0 mi NW 10.4 mph - N/A   Clear
9:55 AM 15.8 °F 2.7 °F 10.4 °F 79% 30.22 in 10.0 mi NNW 11.5 mph 17.3 mph N/A   Clear
10:16 AM 17.6 °F 4.3 °F 10.4 °F 73% 30.23 in 10.0 mi NNW 12.7 mph 18.4 mph N/A   Clear
10:35 AM 17.6 °F 3.7 °F 10.4 °F 73% 30.24 in 10.0 mi NNW 13.8 mph - N/A   Clear
10:56 AM 17.6 °F 5.0 °F 10.4 °F 73% 30.25 in 10.0 mi North 11.5 mph - N/A   Clear
11:16 AM 19.4 °F 6.0 °F 8.6 °F 63% 30.26 in 10.0 mi North 13.8 mph - N/A   Clear
11:35 AM 19.4 °F 6.6 °F 8.6 °F 63% 30.27 in 10.0 mi North 12.7 mph - N/A   Clear
11:56 AM 17.6 °F 3.7 °F 8.6 °F 68% 30.28 in 10.0 mi NNW 13.8 mph - N/A   Clear
12:16 PM 17.6 °F 3.2 °F 8.6 °F 68% 30.28 in 10.0 mi North 15.0 mph - N/A   Clear
12:36 PM 17.6 °F 2.2 °F 6.8 °F 63% 30.28 in 10.0 mi North 17.3 mph 23.0 mph N/A   Clear
12:56 PM 17.6 °F 3.2 °F 6.8 °F 63% 30.29 in 10.0 mi NNW 15.0 mph 19.6 mph N/A   Clear
1:16 PM 17.6 °F 3.2 °F 6.8 °F 63% 30.29 in 10.0 mi NNW 15.0 mph - N/A   Clear
1:36 PM 17.6 °F 3.2 °F 5.0 °F 58% 30.29 in 10.0 mi NNW 15.0 mph 24.2 mph N/A   Clear
1:56 PM 17.6 °F 3.2 °F 5.0 °F 58% 30.29 in 10.0 mi NNW 15.0 mph 19.6 mph N/A   Clear
2:16 PM 17.6 °F 2.7 °F 3.2 °F 53% 30.31 in 10.0 mi North 16.1 mph 21.9 mph N/A   Clear
2:36 PM 15.8 °F -1.9 °F 3.2 °F 58% 30.32 in 10.0 mi NNW 21.9 mph 25.3 mph N/A   Clear
2:56 PM 14.0 °F -3.0 °F 3.2 °F 62% 30.32 in 10.0 mi NNW 18.4 mph 24.2 mph N/A   Clear
3:16 PM 14.0 °F -2.0 °F 1.4 °F 57% 30.33 in 10.0 mi North 16.1 mph - N/A   Clear
3:35 PM 14.0 °F -2.5 °F 1.4 °F 57% 30.34 in 10.0 mi North 17.3 mph 23.0 mph N/A   Clear
3:56 PM 12.2 °F -3.1 °F 1.4 °F 62% 30.36 in 10.0 mi North 13.8 mph 20.7 mph N/A   Clear
4:16 PM 12.2 °F -3.1 °F -0.4 °F 57% 30.37 in 10.0 mi North 13.8 mph 23.0 mph N/A   Clear
4:35 PM 10.4 °F -6.6 °F 1.4 °F 67% 30.39 in 10.0 mi North 16.1 mph 21.9 mph N/A   Clear
4:56 PM 8.6 °F -8.9 °F -0.4 °F 67% 30.41 in 10.0 mi North 16.1 mph 20.7 mph N/A   Clear
5:16 PM 8.6 °F -8.9 °F -2.2 °F 62% 30.42 in 10.0 mi North 16.1 mph 21.9 mph N/A   Clear
5:36 PM 6.8 °F -10.7 °F -4.0 °F 61% 30.42 in 10.0 mi North 15.0 mph 21.9 mph N/A   Clear
5:56 PM 5.0 °F -10.0 °F -4.0 °F 66% 30.44 in 10.0 mi NNE 10.4 mph 20.7 mph N/A   Clear
6:16 PM 5.0 °F -14.2 °F -4.0 °F 66% 30.44 in 10.0 mi North 17.3 mph - N/A   Clear
6:36 PM 3.2 °F -13.9 °F -5.8 °F 66% 30.45 in 10.0 mi North 12.7 mph 19.6 mph N/A   Clear
6:56 PM 3.2 °F -13.9 °F -5.8 °F 66% 30.45 in 10.0 mi North 12.7 mph 18.4 mph N/A   Clear
7:16 PM 3.2 °F -13.1 °F -5.8 °F 66% 30.46 in 10.0 mi North 11.5 mph - N/A   Clear
7:36 PM 3.2 °F -13.1 °F -7.6 °F 61% 30.47 in 10.0 mi North 11.5 mph - N/A   Clear
7:56 PM 1.4 °F -17.6 °F -7.6 °F 66% 30.48 in 10.0 mi North 15.0 mph 18.4 mph N/A   Clear
8:16 PM 1.4 °F -13.5 °F -9.4 °F 61% 30.49 in 10.0 mi North 9.2 mph 18.4 mph N/A   Clear
8:36 PM 1.4 °F -14.5 °F -9.4 °F 61% 30.50 in 10.0 mi North 10.4 mph 21.9 mph N/A   Clear
8:56 PM 1.4 °F -16.9 °F -11.2 °F 56% 30.49 in 10.0 mi North 13.8 mph 18.4 mph N/A   Clear
9:16 PM -0.4 °F -15.7 °F -11.2 °F 60% 30.49 in 10.0 mi NNE 9.2 mph - N/A   Clear
9:36 PM -0.4 °F -17.6 °F -13.0 °F 55% 30.50 in 10.0 mi North 11.5 mph 19.6 mph N/A   Clear
9:56 PM -0.4 °F -14.7 °F -13.0 °F 55% 30.50 in 10.0 mi NNE 8.1 mph - N/A   Clear
10:15 PM -2.2 °F -20.7 °F -14.8 °F 55% 30.51 in 10.0 mi North 12.7 mph 18.4 mph N/A   Clear
10:36 PM -2.2 °F -18.0 °F -13.0 °F 60% 30.54 in 10.0 mi North 9.2 mph - N/A   Clear
10:56 PM -2.2 °F -18.0 °F -13.0 °F 60% 30.54 in 10.0 mi NNE 9.2 mph 16.1 mph N/A   Clear
11:16 PM -4.0 °F -20.2 °F -14.8 °F 60% 30.53 in 10.0 mi NNE 9.2 mph - N/A   Clear
11:36 PM -4.0 °F -23.7 °F -14.8 °F 60% 30.54 in 10.0 mi NE 13.8 mph - N/A   Clear
11:56 PM -4.0 °F -24.5 °F -14.8 °F 60% 30.54 in 10.0 mi NE 15.0 mph 20.7 mph N/A   Clear